Find Aura

NORAD ID: 28376 Int'l Des: 2004-026 Owner: GSFC Country: US operational
LEOCIRCULARRETROGRADESSO

Current View

Loading 3D Globe...

About Aura

Description loading...

Upcoming Passes

Passes for default location (London). Set your location on the main map for personalized predictions.

Altitude History

Loading altitude history...

Two-Line Element Set

1 28376U 04026A 26151.14199363 .00001088 00000-0 23013-3 0 9998
2 28376 98.3410 107.4555 0001467 70.9339 289.2020 14.61300595163725
Epoch: May 31, 2026 • Age: 9 hours

Current Status

Altitude 691.7 km
Velocity 7.51 km/s
Sub-Earth Point 5.33°N, 146.71°W
Launch Date Jul 15, 2004
Age 21.8 years
Type other

Technical Details

Classification Payload
Mass 3112.00 kg
Dry Mass 2978.00 kg
Total Mass 3112.00 kg
Length 6.90 m
Diameter 2.50 m
Span 17.40 m
Shape Box + Pan
Manufacturer NGST
Bus Type T-330
Phase Status In Orbit
Owner/State GSFC/US

Most Searched